sat.trackr.live / text

‹ back to catalog

STARLINK-36916

NORAD 68022 · 2026-040H

PAYLOAD ACTIVE UNKNOWN

§ Identity

Operator
Country
US
Launch date
2026-03-01
Launch site
AFWTR
Launch vehicle
Mass (kg)
RCS (m²)

Purposes: comms

External: N2YO · Heavens-Above · Gunter

§ Orbital elements

Epoch: 2026-09-20T02:22:28.229376Z

Period
93.91 min
Inclination
97.2853°
Eccentricity
0.0001702
Mean motion
15.33447898 rev/d
Perigee alt
464.4 km
Apogee alt
466.7 km
Semi-major
6,843.7 km
B*
4.4320e-4
RAAN
210.4004°
Arg perigee
96.4374°
Mean anomaly
263.7063°
Rev number
3,125

§ Raw data

STARLINK-369161 68022U 26040H   26263.09893784  .00014262  00000+0  44320-3 0  99972 68022  97.2853 210.4004 0001702  96.4374 263.7063 15.33447898 31258

JSON: /api/v1/satellites/68022 · /tle

For live sub-satellite position, see the globe view (requires WebGL).

§ Visibility from observer

Set your observer location to see the next 7 days of passes ≥ 10°. The values pass through the URL so the page stays shareable.

No JS? Fill the form by hand. The geolocation button needs JavaScript.